• în România
  • Lista ţărilor
  • Pe 7 zile
  • Temperatura apei
  • Hartă satelitară
  • Meteo pe hartă
  • Widget-uri
  • user-avatar
    Intrare

    Meteo pe oră la Novonikolskoe

    Astăzi, 18 Septembrie, Marţi

    Timp Temperatura Precipitaţii Vânt Presiune Umiditate
    00:00 +13°C° 0.1 mm 4 m/s 742 mmHg 81%
    01:00 +12°C° 0.1 mm 4 m/s 742 mmHg 84%
    02:00 +12°C° 0 mm 3 m/s 741 mmHg 89%
    03:00 +12°C° 0.1 mm 3 m/s 741 mmHg 91%
    04:00 +12°C° 0.1 mm 4 m/s 742 mmHg 92%
    05:00 +12°C° 0.1 mm 4 m/s 742 mmHg 94%
    06:00 +12°C° 0 mm 4 m/s 742 mmHg 92%
    07:00 +12°C° 0 mm 4 m/s 742 mmHg 90%
    08:00 +12°C° 0 mm 4 m/s 743 mmHg 87%
    09:00 +12°C° 0 mm 4 m/s 743 mmHg 83%
    10:00 +13°C° 0 mm 4 m/s 743 mmHg 79%
    11:00 +13°C° 0 mm 4 m/s 744 mmHg 75%
    12:00 +14°C° 0 mm 4 m/s 744 mmHg 69%
    13:00 +15°C° 0 mm 4 m/s 744 mmHg 64%
    14:00 +17°C° 0 mm 4 m/s 744 mmHg 59%
    15:00 +16°C° 0 mm 3 m/s 744 mmHg 63%
    16:00 +16°C° 0 mm 3 m/s 744 mmHg 67%
    17:00 +15°C° 0 mm 2 m/s 744 mmHg 72%
    18:00 +14°C° 0 mm 2 m/s 744 mmHg 77%
    19:00 +13°C° 0 mm 2 m/s 744 mmHg 83%
    20:00 +10°C° 0 mm 2 m/s 745 mmHg 89%
    21:00 +10°C° 0 mm 2 m/s 745 mmHg 90%
    22:00 +10°C° 0 mm 2 m/s 745 mmHg 92%
    23:00 +9°C° 0 mm 2 m/s 745 mmHg 93%

    Mâine, 19 Septembrie, Miercuri

    Timp Temperatura Precipitaţii Vânt Presiune Umiditate
    00:00 +10°C° 0 mm 2 m/s 745 mmHg 93%
    01:00 +10°C° 0 mm 2 m/s 745 mmHg 92%
    02:00 +10°C° 0 mm 2 m/s 744 mmHg 92%
    03:00 +12°C° 0 mm 2 m/s 744 mmHg 94%
    04:00 +11°C° 0 mm 3 m/s 744 mmHg 95%
    05:00 +11°C° 0 mm 3 m/s 744 mmHg 97%
    06:00 +12°C° 0 mm 3 m/s 744 mmHg 93%
    07:00 +13°C° 0 mm 3 m/s 744 mmHg 89%
    08:00 +14°C° 0 mm 3 m/s 744 mmHg 85%
    09:00 +17°C° 0 mm 4 m/s 744 mmHg 76%
    10:00 +19°C° 0 mm 4 m/s 744 mmHg 67%
    11:00 +21°C° 0 mm 4 m/s 744 mmHg 58%
    12:00 +22°C° 0 mm 4 m/s 744 mmHg 56%
    13:00 +23°C° 0 mm 4 m/s 744 mmHg 54%
    14:00 +23°C° 0 mm 4 m/s 743 mmHg 52%
    15:00 +22°C° 0 mm 4 m/s 743 mmHg 59%
    16:00 +21°C° 0 mm 3 m/s 743 mmHg 66%
    17:00 +20°C° 0 mm 2 m/s 743 mmHg 73%
    18:00 +19°C° 0 mm 2 m/s 743 mmHg 79%
    19:00 +18°C° 0 mm 2 m/s 743 mmHg 85%
    20:00 +16°C° 0 mm 3 m/s 743 mmHg 91%
    21:00 +16°C° 0 mm 2 m/s 743 mmHg 92%
    22:00 +16°C° 0 mm 2 m/s 743 mmHg 94%
    23:00 +15°C° 0 mm 2 m/s 743 mmHg 96%

    Poimâine, 20 Septembrie, Joi

    Timp Temperatura Precipitaţii Vânt Presiune Umiditate
    00:00 +15°C° 0 mm 2 m/s 743 mmHg 96%
    01:00 +15°C° 0 mm 2 m/s 743 mmHg 97%
    02:00 +15°C° 0 mm 2 m/s 743 mmHg 97%
    03:00 +15°C° 0 mm 2 m/s 744 mmHg 97%
    04:00 +15°C° 0 mm 2 m/s 744 mmHg 98%
    05:00 +14°C° 0 mm 2 m/s 744 mmHg 98%
    06:00 +15°C° 0 mm 2 m/s 744 mmHg 95%
    07:00 +14°C° 0 mm 3 m/s 744 mmHg 92%
    08:00 +16°C° 0 mm 3 m/s 745 mmHg 88%
    09:00 +17°C° 0 mm 3 m/s 745 mmHg 80%
    10:00 +19°C° 0 mm 3 m/s 745 mmHg 72%
    11:00 +21°C° 0 mm 3 m/s 745 mmHg 63%
    12:00 +21°C° 0 mm 3 m/s 745 mmHg 61%
    13:00 +22°C° 0 mm 3 m/s 745 mmHg 59%
    14:00 +24°C° 0 mm 3 m/s 745 mmHg 57%
    15:00 +23°C° 0 mm 2 m/s 745 mmHg 63%
    16:00 +21°C° 0 mm 2 m/s 745 mmHg 68%
    17:00 +21°C° 0 mm 1 m/s 745 mmHg 74%
    18:00 +19°C° 0 mm 1 m/s 745 mmHg 80%
    19:00 +18°C° 0 mm 1 m/s 745 mmHg 86%
    20:00 +15°C° 0 mm 1 m/s 746 mmHg 92%
    21:00 +15°C° 0 mm 1 m/s 746 mmHg 92%
    22:00 +14°C° 0 mm 1 m/s 746 mmHg 93%
    23:00 +14°C° 0 mm 1 m/s 746 mmHg 94%

    21 Septembrie, Vineri

    Timp Temperatura Precipitaţii Vânt Presiune Umiditate
    00:00 +14°C° 0 mm 1 m/s 746 mmHg 94%
    01:00 +14°C° 0 mm 1 m/s 746 mmHg 95%
    02:00 +13°C° 0 mm 1 m/s 746 mmHg 95%
    03:00 +13°C° 0 mm 1 m/s 746 mmHg 95%
    04:00 +13°C° 0 mm 1 m/s 746 mmHg 95%
    05:00 +13°C° 0 mm 1 m/s 746 mmHg 95%
    06:00 +14°C° 0 mm 1 m/s 746 mmHg 91%
    07:00 +15°C° 0 mm 1 m/s 746 mmHg 87%
    08:00 +16°C° 0 mm 2 m/s 746 mmHg 83%
    09:00 +18°C° 0 mm 2 m/s 746 mmHg 76%
    10:00 +20°C° 0 mm 2 m/s 746 mmHg 69%
    11:00 +23°C° 0 mm 2 m/s 746 mmHg 62%
    12:00 +24°C° 0 mm 2 m/s 746 mmHg 61%
    13:00 +24°C° 0 mm 2 m/s 746 mmHg 59%
    14:00 +25°C° 0 mm 2 m/s 746 mmHg 58%
    15:00 +24°C° 0 mm 2 m/s 745 mmHg 64%
    16:00 +23°C° 0 mm 2 m/s 745 mmHg 71%
    17:00 +21°C° 0 mm 2 m/s 745 mmHg 77%
    18:00 +20°C° 0 mm 2 m/s 745 mmHg 83%
    19:00 +18°C° 0 mm 2 m/s 745 mmHg 88%
    20:00 +17°C° 0 mm 2 m/s 744 mmHg 94%
    21:00 +17°C° 0 mm 2 m/s 744 mmHg 94%
    22:00 +17°C° 0 mm 2 m/s 744 mmHg 94%
    23:00 +16°C° 0 mm 2 m/s 744 mmHg 95%

    22 Septembrie, Sâmbătă

    Timp Temperatura Precipitaţii Vânt Presiune Umiditate
    00:00 +16°C° 0 mm 2 m/s 744 mmHg 94%
    01:00 +16°C° 0 mm 3 m/s 744 mmHg 94%
    02:00 +16°C° 0 mm 3 m/s 744 mmHg 94%
    03:00 +14°C° 0 mm 3 m/s 743 mmHg 94%
    04:00 +14°C° 0 mm 3 m/s 743 mmHg 93%
    05:00 +14°C° 0 mm 3 m/s 743 mmHg 93%
    06:00 +15°C° 0 mm 4 m/s 743 mmHg 87%
    07:00 +17°C° 0 mm 4 m/s 742 mmHg 81%
    08:00 +18°C° 0 mm 4 m/s 742 mmHg 75%
    09:00 +20°C° 0 mm 5 m/s 742 mmHg 68%
    10:00 +22°C° 0 mm 5 m/s 742 mmHg 61%
    11:00 +23°C° 0 mm 5 m/s 742 mmHg 54%
    12:00 +25°C° 0 mm 5 m/s 741 mmHg 52%
    13:00 +25°C° 0 mm 5 m/s 741 mmHg 50%
    14:00 +25°C° 0 mm 5 m/s 740 mmHg 49%
    15:00 +23°C° 0 mm 5 m/s 740 mmHg 54%
    16:00 +22°C° 0 mm 4 m/s 740 mmHg 59%
    17:00 +21°C° 0 mm 3 m/s 739 mmHg 65%
    18:00 +20°C° 0.1 mm 3 m/s 739 mmHg 67%
    19:00 +19°C° 0.1 mm 4 m/s 739 mmHg 69%
    20:00 +19°C° 0.1 mm 4 m/s 739 mmHg 72%
    21:00 +18°C° 0.4 mm 4 m/s 739 mmHg 75%
    22:00 +17°C° 0.4 mm 3 m/s 739 mmHg 79%
    23:00 +16°C° 0.4 mm 3 m/s 739 mmHg 83%

    23 Septembrie, Duminică

    Timp Temperatura Precipitaţii Vânt Presiune Umiditate
    00:00 +16°C° 0.4 mm 3 m/s 739 mmHg 86%
    01:00 +15°C° 0.4 mm 2 m/s 739 mmHg 90%
    02:00 +14°C° 0.4 mm 2 m/s 739 mmHg 93%
    03:00 +14°C° 0.2 mm 2 m/s 739 mmHg 94%
    04:00 +14°C° 0.2 mm 2 m/s 739 mmHg 95%
    05:00 +13°C° 0.2 mm 2 m/s 739 mmHg 95%
    06:00 +13°C° 0.2 mm 2 m/s 739 mmHg 94%
    07:00 +12°C° 0.2 mm 3 m/s 739 mmHg 93%
    08:00 +11°C° 0.2 mm 3 m/s 739 mmHg 92%
    09:00 +11°C° 0.2 mm 3 m/s 740 mmHg 92%
    10:00 +11°C° 0.2 mm 3 m/s 740 mmHg 92%
    11:00 +10°C° 0.2 mm 3 m/s 740 mmHg 91%
    12:00 +10°C° 0.1 mm 3 m/s 741 mmHg 90%
    13:00 +10°C° 0.1 mm 3 m/s 741 mmHg 89%
    14:00 +10°C° 0.1 mm 3 m/s 741 mmHg 88%
    15:00 +10°C° 0.1 mm 3 m/s 741 mmHg 89%
    16:00 +9°C° 0.1 mm 3 m/s 742 mmHg 89%
    17:00 +9°C° 0.1 mm 2 m/s 742 mmHg 89%
    18:00 +9°C° 0 mm 2 m/s 742 mmHg 91%
    19:00 +8°C° 0 mm 2 m/s 742 mmHg 93%
    20:00 +9°C° 0 mm 1 m/s 742 mmHg 95%
    21:00 +8°C° 0 mm 1 m/s 742 mmHg 95%
    22:00 +8°C° 0 mm 1 m/s 742 mmHg 95%
    23:00 +8°C° 0 mm 1 m/s 742 mmHg 95%
    Arată mai mult